Terminal Aerodrome Forecast
Issued by NWS Amarillo, TX

Home | Current Version | Previous Version | Text Only | Print | Product List | Glossary On
Versions: 1 2 3 4 5 6 7 8 9 10 11 12 13 14 15 16 17 18 19
674
FTUS44 KAMA 310058 AAA
TAFDHT
TAF AMD
KDHT 310058Z 3101/3124 18015G26KT P6SM SCT080
     FM310200 18011KT P6SM BKN100
     FM311400 23017KT P6SM BKN070=

USA.gov is the U.S. government's official web portal to all federal, state and local government web resources and services.